Temperature
15 15 15 16 16 17 19 21 23 23 24 24 25 25 24 22 22 19 18 18 18 18 18 17 17 17 17 17 17 17 16 16 16 16 16 16 16 16 16 16 16 15 15 15 15 15 15 15 15
15 15 15 16 16 17 19 21 22 23 24 23 23 23 23 21 19 18 18 17 17 18 18 17 17 17 17 17 17 16 16 16 16 16 16 16 16 16 16 16 16 15 15 15 15 15 15 15 15
14 14 15 16 17 18 20 21 22 23 23 23 23 22 22 20 19 18 18 17 17 17 17 17 17 17 16 16 16 16 16 16 16 16 16 16 15 15 15 15 15 15 15 15 15 15 15 15 15
13 14 16 16 17 19 20 22 22 22 22 22 22 21 20 19 18 18 17 17 16 16 17 17 17 16 16 16 16 16 16 16 16 16 16 16 16 15 15 15 15 15 15 15 15 15 15 15 15
13 15 15 16 17 19 21 22 22 21 21 22 22 21 18 18 18 17 17 16 16 16 16 16 16 16 16 16 16 16 16 16 16 16 16 16 15 15 15 15 15 15 15 15 15 15 14 14 14
14 15 15 16 17 19 20 22 21 21 21 21 21 20 17 17 17 17 16 16 16 16 16 16 16 16 16 16 16 16 16 16 16 16 16 15 15 15 15 15 15 15 15 15 14 14 14 14 14
14 14 15 16 18 19 20 21 21 20 20 21 21 19 17 17 17 16 16 15 15 15 15 15 15 15 15 15 15 16 16 16 16 15 15 15 15 15 15 14 14 14 14 14 14 14 14 14 14
13 14 15 16 17 18 20 21 21 20 20 20 20 19 17 16 16 16 16 15 15 15 15 15 15 15 15 15 15 15 15 15 15 15 15 15 15 14 14 14 14 14 14 14 14 14 14 14 14
12 13 14 15 17 18 20 20 20 19 19 19 19 18 17 16 16 15 15 15 15 14 14 14 14 14 15 15 15 15 15 15 15 15 15 14 14 14 14 14 14 14 14 14 14 14 14 13 13
12 12 14 16 17 17 18 19 19 18 18 18 18 17 16 16 15 15 15 15 14 14 14 14 14 14 14 14 15 15 15 15 15 14 14 14 14 14 14 14 14 14 14 14 13 13 13 13 13
12 12 14 15 16 16 17 18 18 18 17 17 17 16 15 15 15 15 14 14 14 14 14 14 14 14 14 14 14 14 14 14 14 14 14 14 14 14 14 13 13 13 13 13 13 13 13 13 13
12 13 14 14 15 15 16 17 17 17 17 17 17 16 15 15 14 14 14 14 14 14 14 14 14 14 14 14 14 14 14 14 14 14 14 14 14 14 13 13 13 13 13 13 13 13 13 13 13
11 12 13 13 14 14 15 16 16 16 17 17 16 15 15 14 14 14 14 14 14 14 14 13 13 13 14 14 14 14 14 14 14 14 13 13 13 13 13 13 13 13 13 13 13 13 12 12 12
11 12 12 13 13 14 15 15 16 16 16 16 15 15 14 14 14 14 14 14 14 14 13 13 13 13 13 13 13 13 13 13 13 13 13 13 13 13 13 13 13 13 13 13 12 12 12 12 12
10 11 12 12 13 14 14 14 15 15 15 15 15 15 15 14 14 14 14 14 14 14 13 13 13 13 13 13 13 13 13 13 13 13 13 13 13 13 13 13 12 12 12 12 12 12 12 12 12
11 10 10 12 13 13 13 12 14 15 15 14 14 14 14 14 14 14 14 14 14 13 13 13 13 13 13 13 13 13 13 13 13 13 13 13 13 13 13 12 12 12 12 12 12 12 11 11 11
10 9 10 11 12 13 12 12 14 14 14 14 14 14 14 14 13 13 13 13 13 13 13 13 13 12 13 13 13 12 12 12 12 12 12 12 12 12 12 12 12 12 12 12 12 11 11 11 11
8 9 10 11 12 12 12 12 13 14 14 14 13 13 13 13 13 13 13 13 13 13 13 13 12 12 12 12 12 12 12 12 12 12 12 12 12 12 12 12 12 12 12 12 11 11 11 11 11
9 9 9 11 12 11 11 12 13 13 13 13 13 13 12 12 12 12 12 12 12 12 12 12 12 12 12 12 12 12 12 12 12 12 12 12 12 12 12 12 12 12 12 11 11 11 11 11 11
9 9 9 10 11 11 11 11 12 13 13 13 13 12 12 12 12 11 12 12 11 11 12 12 12 11 12 12 12 12 12 11 11 11 11 11 11 12 12 12 12 11 11 11 11 11 11 10 10
8 8 9 9 10 11 10 10 11 12 13 13 12 12 12 11 11 11 11 11 11 11 11 11 11 11 11 11 11 11 11 11 11 11 11 11 11 11 11 11 11 11 11 11 11 11 10 10 10
7 9 9 9 8 8 10 8 10 11 11 11 12 11 11 11 10 10 10 10 10 11 11 11 11 11 11 11 11 11 11 11 11 11 11 11 11 11 11 11 11 11 11 11 10 10 10 10 9
8 9 9 9 8 8 9 8 9 11 10 11 10 10 10 10 10 10 10 10 10 10 10 10 10 10 10 10 10 10 10 10 10 10 10 10 10 10 10 10 10 10 10 10 10 10 9 9 9
8 8 8 8 8 7 8 9 9 10 10 10 10 10 10 10 9 9 9 9 9 10 10 10 10 10 10 10 10 10 10 10 10 10 10 10 10 10 10 10 10 10 10 10 10 9 9 9 8
8 7 6 6 6 7 9 9 9 10 10 10 10 10 9 9 9 9 9 9 9 9 9 9 9 9 9 9 9 10 10 10 10 10 10 10 10 10 10 10 9 9 9 9 9 9 9 8 8
7 7 6 6 7 8 9 8 9 10 10 10 10 9 9 8 8 8 8 8 8 8 8 9 9 9 9 9 9 9 9 9 9 9 9 9 10 10 9 9 9 9 9 9 9 8 8 8 7
6 6 7 6 7 7 8 9 9 10 9 9 9 8 8 8 8 7 7 8 8 8 8 8 8 8 8 8 8 8 9 9 9 9 9 9 9 9 9 9 9 9 9 8 8 8 7 7 7
6 6 6 6 6 6 8 8 8 8 8 8 8 7 7 7 7 7 7 7 7 7 7 8 8 8 8 8 8 8 8 8 8 8 8 8 8 8 8 8 8 8 8 8 8 7 7 7 6
5 6 5 5 6 6 6 7 8 7 7 7 7 7 7 7 6 6 6 7 7 7 7 7 7 7 7 7 7 7 7 8 8 8 8 8 8 8 8 8 8 7 7 7 7 7 6 6 6
6 5 5 4 5 6 6 5 7 7 7 6 6 6 6 6 6 6 6 6 6 6 6 6 6 7 7 6 7 7 7 7 7 7 7 7 7 7 7 7 7 7 7 7 6 6 6 6 5
Wind_Speed
10 11 6 3 4 6 10 8 7 4 3 2 2 2 1 2 2 6 5 9 14 15 16 17 16 15 15 15 15 15 15 14 14 14 14 14 14 14 15 15 15 16 16 16 15 15 15 15 15
10 7 4 4 5 8 9 9 8 5 1 2 3 3 2 3 6 8 6 10 14 15 16 16 16 16 15 15 15 16 15 15 14 14 14 14 14 14 14 15 15 15 15 15 15 14 14 15 14
10 8 4 4 6 10 8 5 6 3 3 2 1 1 1 3 6 6 7 12 13 13 15 16 17 16 16 15 14 15 16 15 14 14 14 13 14 14 14 15 15 14 15 14 14 14 14 14 13
5 4 4 7 13 11 9 6 2 2 2 3 2 2 3 5 4 7 10 12 13 12 15 17 17 17 16 15 14 15 15 15 14 14 14 14 14 14 14 14 14 14 14 14 14 14 13 13 12
4 4 7 10 14 12 9 7 2 2 3 4 4 2 3 4 9 10 10 12 13 12 14 16 17 17 16 16 14 14 15 15 15 15 14 14 14 14 14 13 13 13 13 13 13 13 12 12 11
4 4 8 13 14 12 10 7 3 3 3 4 4 3 3 5 8 9 9 10 12 12 14 16 16 17 16 16 15 14 15 15 15 14 14 14 14 13 13 13 13 13 12 12 12 12 12 11 10
6 5 10 11 11 12 11 6 5 5 5 4 3 2 4 5 7 7 8 10 11 12 12 13 14 15 16 16 16 14 15 15 14 14 14 14 14 13 13 12 12 12 11 11 11 11 11 10 9
5 4 10 12 13 12 8 6 4 3 4 3 2 2 4 7 7 7 8 9 10 10 11 11 12 13 13 14 15 14 15 15 14 14 14 14 13 13 13 12 11 11 11 11 11 10 9 8 7
4 7 12 12 10 8 5 4 3 1 2 2 0 2 6 11 9 8 8 8 8 9 9 10 10 12 13 13 14 15 15 15 15 13 14 12 12 11 11 11 11 11 10 10 10 9 8 6 5
5 10 14 9 7 7 6 4 3 2 3 2 2 6 10 9 10 10 9 10 10 9 8 9 9 10 11 11 12 12 12 12 12 11 10 10 10 10 10 11 11 11 10 9 7 6 6 5 3
6 10 9 9 8 9 7 5 3 3 5 4 5 7 11 10 9 10 9 10 10 9 8 8 8 9 9 8 9 8 9 10 10 10 9 10 10 10 9 8 8 8 7 5 4 4 4 5 4
8 11 10 8 6 7 7 5 4 4 4 2 5 8 9 11 10 9 9 9 9 9 8 8 8 8 8 8 7 7 7 7 7 8 9 9 7 6 6 6 6 5 5 4 3 3 4 4 4
12 11 11 9 8 7 7 7 5 5 3 1 5 8 8 9 9 8 7 8 8 9 8 8 8 8 7 6 5 6 6 6 8 8 9 9 6 4 5 5 5 5 5 3 3 3 4 4 3
7 8 9 8 9 7 6 9 6 5 2 2 5 7 8 7 7 7 6 7 8 8 8 8 8 8 7 5 4 6 7 7 8 8 9 9 8 6 5 5 4 5 5 4 4 4 3 3 3
7 9 9 9 8 5 5 9 9 5 3 4 5 5 6 6 7 7 7 7 8 9 9 8 7 7 7 6 5 6 7 7 7 7 9 9 9 7 7 5 4 4 5 5 5 4 3 2 2
7 6 7 7 8 6 6 10 7 3 4 5 4 4 5 5 5 6 6 7 7 8 9 9 7 7 7 6 5 5 7 7 7 7 8 9 9 8 7 5 4 5 5 4 3 2 2 2 1
5 6 7 6 8 6 9 9 6 4 4 5 4 4 4 4 3 3 5 6 7 8 8 8 8 7 6 6 5 6 7 6 6 7 7 7 8 8 7 5 5 6 4 3 2 2 2 2 1
5 6 8 8 7 8 9 8 6 5 5 5 5 4 4 3 3 3 3 5 6 6 8 8 7 6 6 5 5 5 5 5 6 6 7 7 7 8 7 6 5 5 3 2 2 2 2 1 1
5 7 8 8 6 8 10 10 6 5 5 5 5 4 4 3 2 3 3 4 5 6 7 8 7 7 6 5 5 5 4 4 4 5 7 7 7 7 6 5 4 4 3 2 3 2 2 1 1
7 8 7 5 5 6 8 9 5 5 6 5 5 5 3 2 2 2 2 4 4 5 7 7 7 7 6 5 4 3 4 4 3 4 6 6 6 6 6 5 4 3 3 3 2 2 1 1 1
7 7 6 5 4 5 5 7 7 5 4 3 4 4 4 4 4 4 3 4 4 4 4 5 6 6 6 7 5 5 4 3 3 3 3 4 6 6 5 5 4 4 3 3 2 2 2 1 0
6 5 6 5 3 3 4 5 7 7 6 5 4 4 3 3 3 3 3 4 5 4 4 4 4 5 6 7 7 8 6 4 4 4 3 4 5 6 6 5 4 4 3 3 2 2 1 2 1
5 5 5 5 4 4 5 4 4 7 6 6 5 4 3 3 3 3 3 3 4 4 4 4 4 4 5 6 7 7 5 4 4 4 5 4 4 5 5 5 4 4 3 3 3 2 1 1 1
4 2 3 3 3 5 7 6 4 5 7 5 4 3 2 2 2 2 3 3 2 4 4 4 4 4 4 5 5 6 7 6 6 5 5 4 3 4 5 5 4 4 3 3 3 3 2 2 1
1 1 0 1 3 4 5 4 4 4 3 3 3 4 3 2 2 2 3 2 2 3 4 4 4 4 3 4 4 4 5 6 7 6 6 5 4 4 5 5 5 4 3 3 3 3 2 2 2
2 1 1 1 2 2 3 4 2 0 3 3 3 3 3 2 2 2 2 2 2 2 3 4 4 3 3 3 4 4 4 4 4 5 4 5 4 4 5 6 5 5 5 4 3 3 2 2 2
1 1 2 2 2 2 3 3 2 1 3 3 3 3 3 1 1 1 1 2 2 2 2 3 3 3 3 3 3 3 4 4 4 4 3 3 4 4 5 5 5 4 4 4 3 2 2 2 2
2 1 1 1 1 2 3 3 2 1 2 2 2 1 1 1 2 1 1 2 2 2 2 2 2 2 2 2 3 2 3 3 3 4 4 4 4 4 5 5 5 4 4 4 3 2 2 2 1
1 1 1 2 3 1 2 1 2 2 2 2 2 1 2 2 2 2 1 2 2 2 2 2 2 3 2 1 2 3 3 3 3 3 3 4 4 4 4 5 5 5 4 4 3 3 2 2 1
1 1 1 1 3 2 1 2 3 3 3 3 3 2 3 3 3 3 2 2 2 2 2 2 2 2 2 1 2 2 3 3 3 2 3 3 4 4 4 4 4 4 4 4 4 3 3 3 2
Wind_Direction
292 273 259 246 233 227 233 235 250 249 247 285 345 329 358 2 29 116 139 121 118 130 135 138 134 132 129 128 129 125 122 119 118 116 113 110 108 105 102 99 96 94 92 89 87 85 84 83 80
281 271 252 235 231 228 230 225 241 243 219 45 18 350 9 63 73 107 124 121 125 131 135 137 134 133 131 129 129 127 124 121 118 117 116 114 111 109 105 102 99 95 92 90 88 86 85 84 81
266 255 240 226 229 231 238 220 226 219 137 113 99 12 355 80 95 114 125 127 123 127 132 133 134 134 133 131 129 129 126 122 120 118 116 115 113 110 107 103 100 97 95 92 90 87 85 83 80
251 229 235 233 232 231 247 252 227 199 149 139 161 132 90 56 87 116 128 127 124 125 126 133 134 134 134 132 128 128 127 125 123 120 117 115 113 110 107 104 102 100 97 95 92 89 86 83 79
240 231 220 229 237 243 250 253 218 212 175 180 203 175 93 59 96 120 130 128 127 127 127 133 133 133 133 130 129 128 127 125 124 122 119 116 113 111 109 107 105 103 100 98 95 92 88 84 79
229 231 224 224 229 235 244 247 216 215 209 195 201 216 109 106 109 126 129 128 127 127 128 133 132 131 130 129 126 124 127 126 125 123 122 119 115 112 111 109 107 105 103 100 97 94 89 84 78
233 226 235 236 233 232 235 235 215 214 206 217 209 189 131 126 119 129 129 127 126 126 128 132 132 129 128 127 126 123 123 123 124 124 122 119 116 114 112 110 110 109 106 103 100 96 91 87 80
251 250 238 237 239 237 233 232 215 210 229 215 219 171 157 143 134 131 129 124 125 129 134 139 139 134 129 126 125 124 124 121 119 120 120 119 117 114 110 107 109 109 108 106 103 99 96 91 83
256 235 230 227 237 246 245 236 232 221 239 230 100 51 123 135 136 133 130 126 129 134 140 142 141 137 134 133 130 127 125 123 121 122 125 121 115 113 110 109 109 106 109 110 107 106 103 100 90
218 226 231 237 256 274 269 243 210 198 226 214 119 96 123 140 147 152 153 150 148 146 147 146 144 139 137 138 136 135 133 133 130 134 130 121 118 117 115 114 113 109 107 111 117 119 116 103 83
223 232 244 252 272 289 285 271 218 204 227 209 174 149 147 155 163 167 167 161 157 152 147 144 140 139 135 133 140 140 140 141 136 137 131 120 113 114 114 113 110 113 112 109 123 127 100 90 75
239 245 248 256 274 287 285 280 253 229 244 204 168 161 161 168 175 177 175 165 156 150 147 145 140 135 133 134 140 140 134 133 132 136 130 123 120 119 125 123 124 123 107 102 93 84 79 83 75
238 243 248 256 266 268 278 263 254 250 246 192 159 159 175 181 181 179 173 160 155 153 150 147 143 137 129 126 136 130 126 128 130 131 128 123 119 117 122 118 119 108 105 103 94 83 71 66 60
248 255 251 253 259 253 264 268 245 235 226 192 177 173 182 185 176 170 168 164 160 154 149 144 142 139 133 131 128 128 127 129 126 125 127 126 124 119 111 103 102 100 102 92 83 81 79 67 54
245 252 247 239 242 239 253 253 234 225 214 211 188 184 184 178 174 176 173 170 160 155 148 142 143 139 138 133 128 125 128 126 119 122 125 121 121 121 116 108 96 97 98 90 80 65 69 69 51
230 234 236 229 226 229 224 240 228 219 207 222 205 193 192 186 175 172 165 161 154 149 148 144 145 141 140 133 124 124 122 119 119 121 119 119 120 121 116 111 105 104 99 91 84 77 64 60 50
218 224 232 229 213 219 222 239 233 214 203 217 213 208 199 188 175 160 155 151 152 149 147 144 144 146 136 129 123 120 113 114 118 119 117 119 121 122 115 111 113 113 99 85 86 73 76 60 32
223 227 232 234 212 220 227 237 225 201 199 207 212 211 203 190 174 154 147 144 148 148 144 143 143 138 132 124 122 113 111 113 111 114 119 123 124 123 118 114 113 112 104 94 90 81 67 69 358
246 241 245 249 227 231 229 233 223 197 191 198 202 212 209 193 150 138 134 126 138 142 144 147 147 145 138 138 136 139 140 129 119 115 121 126 125 123 120 118 113 111 121 120 110 97 90 53 28
251 248 246 255 244 242 241 243 228 212 195 188 194 203 213 192 155 144 131 123 134 155 154 151 154 158 154 154 149 141 137 129 123 118 116 128 128 129 129 120 128 123 126 116 103 99 98 73 65
258 247 243 244 277 251 245 243 220 209 201 194 192 189 188 192 184 176 159 141 142 153 159 163 167 160 155 144 131 120 112 114 127 133 138 133 135 133 130 129 127 128 132 138 134 121 110 151 166
258 263 255 242 238 250 226 236 222 198 199 207 204 196 194 194 176 169 159 158 161 164 157 154 159 156 153 147 152 154 156 162 168 160 155 137 134 134 137 133 130 127 132 142 153 140 118 134 171
271 282 262 240 242 256 230 225 230 195 209 208 190 188 200 186 171 169 162 163 165 150 144 155 151 156 156 158 163 162 159 154 143 143 148 150 144 141 141 145 138 143 145 149 154 143 124 142 151
281 272 285 258 237 238 223 210 233 211 210 205 194 175 176 163 150 137 131 124 130 127 132 144 151 160 154 158 165 163 158 153 149 159 163 159 158 155 152 151 148 150 156 158 155 154 153 157 149
321 66 31 228 207 226 208 211 227 213 179 171 172 163 153 137 130 115 116 111 107 126 134 142 151 157 160 161 164 163 160 159 165 170 171 164 163 168 170 160 163 163 164 157 154 156 171 168 158
262 254 208 240 223 251 205 211 219 162 119 119 122 126 135 120 120 116 126 125 123 129 138 145 150 155 159 160 166 160 154 158 170 172 171 173 170 172 166 163 164 165 160 160 162 161 173 151 160
293 243 275 295 281 257 213 195 196 86 84 98 97 93 117 131 124 115 113 124 124 134 133 149 151 146 156 169 161 161 162 161 163 160 159 161 158 158 152 156 163 161 160 168 169 170 174 153 157
300 316 332 277 266 255 224 206 198 119 27 67 121 128 122 125 116 96 85 84 112 129 127 128 135 130 142 161 162 160 147 151 159 153 156 155 149 145 150 159 161 161 165 168 160 163 158 153 177
283 252 281 271 269 253 241 227 16 96 60 17 22 54 38 69 95 99 74 64 92 120 121 130 129 110 108 137 144 136 134 130 136 148 148 149 147 150 156 162 164 166 170 162 159 169 158 165 182
289 267 272 247 277 267 256 281 8 54 66 43 27 36 47 62 56 58 71 66 60 85 97 95 114 121 131 131 108 106 113 118 120 130 145 151 153 152 156 160 161 163 168 167 165 170 171 177 192
Height
1499 1500 1503 1505 1507 1505 1499 1489 1482 1481 1480 1481 1482 1483 1485 1490 1494 1503 1503 1502 1503 1505 1508 1511 1514 1516 1519 1521 1523 1525 1527 1529 1530 1532 1533 1534 1535 1536 1537 1537 1538 1539 1539 1540 1540 1540 1540 1541 1541
1498 1501 1504 1504 1504 1503 1495 1485 1483 1480 1481 1482 1483 1485 1487 1492 1495 1498 1500 1502 1503 1505 1508 1511 1514 1517 1519 1522 1524 1526 1528 1530 1531 1533 1534 1535 1536 1537 1538 1538 1539 1540 1540 1541 1541 1541 1542 1542 1542
1497 1500 1503 1499 1497 1496 1489 1480 1479 1479 1481 1483 1485 1488 1490 1494 1496 1498 1500 1502 1504 1506 1508 1511 1514 1517 1520 1522 1524 1526 1528 1530 1532 1533 1535 1536 1537 1538 1539 1539 1540 1541 1541 1542 1542 1543 1543 1543 1543
1497 1500 1500 1497 1492 1485 1482 1479 1478 1480 1482 1484 1487 1490 1492 1496 1496 1498 1500 1502 1504 1506 1509 1512 1514 1517 1520 1522 1524 1527 1529 1531 1532 1534 1535 1537 1538 1538 1539 1540 1541 1542 1542 1543 1543 1543 1544 1544 1544
1496 1496 1496 1493 1487 1482 1478 1478 1479 1480 1482 1485 1487 1489 1493 1496 1496 1498 1500 1502 1504 1506 1509 1512 1515 1517 1520 1522 1524 1526 1529 1531 1533 1534 1536 1537 1538 1539 1540 1541 1542 1542 1543 1543 1544 1544 1544 1545 1545
1495 1492 1491 1489 1484 1480 1478 1478 1479 1481 1483 1485 1487 1489 1494 1496 1496 1498 1501 1503 1505 1506 1509 1512 1515 1518 1520 1522 1525 1527 1529 1531 1533 1535 1536 1538 1539 1540 1541 1541 1542 1543 1543 1544 1545 1545 1545 1545 1546
1492 1489 1486 1483 1481 1478 1476 1477 1478 1480 1482 1485 1486 1489 1493 1495 1496 1498 1501 1504 1506 1507 1509 1512 1515 1518 1520 1522 1525 1527 1529 1531 1533 1535 1536 1538 1539 1540 1541 1542 1543 1543 1544 1544 1545 1546 1546 1546 1546
1488 1487 1483 1481 1479 1477 1475 1476 1477 1479 1481 1484 1486 1488 1491 1494 1496 1498 1501 1503 1505 1507 1509 1511 1514 1517 1519 1522 1525 1527 1529 1531 1533 1535 1537 1538 1539 1540 1541 1542 1543 1544 1544 1545 1546 1546 1546 1547 1547
1487 1488 1481 1478 1478 1476 1474 1475 1477 1479 1481 1483 1485 1487 1488 1491 1494 1497 1500 1502 1505 1507 1509 1511 1514 1516 1519 1522 1524 1527 1529 1531 1533 1535 1536 1538 1539 1540 1541 1542 1543 1544 1545 1545 1546 1546 1547 1547 1547
1484 1483 1476 1475 1476 1475 1474 1475 1477 1479 1481 1483 1484 1487 1489 1490 1493 1496 1498 1500 1503 1505 1508 1511 1513 1515 1518 1521 1523 1526 1528 1530 1532 1534 1536 1537 1539 1540 1541 1542 1542 1543 1545 1545 1546 1546 1547 1547 1547
1480 1477 1475 1476 1476 1476 1475 1474 1476 1478 1480 1481 1483 1486 1488 1490 1492 1495 1497 1499 1501 1504 1507 1509 1512 1515 1517 1520 1522 1525 1527 1530 1532 1534 1535 1537 1538 1540 1541 1542 1542 1543 1544 1545 1546 1546 1546 1547 1547
1479 1476 1476 1476 1477 1477 1476 1475 1476 1477 1479 1481 1482 1484 1487 1489 1491 1493 1496 1498 1501 1503 1505 1508 1511 1514 1517 1519 1522 1524 1526 1529 1531 1533 1535 1536 1538 1539 1540 1541 1542 1543 1544 1545 1545 1546 1546 1546 1547
1477 1475 1475 1476 1476 1477 1476 1475 1476 1476 1478 1480 1481 1483 1485 1488 1490 1493 1495 1497 1499 1501 1504 1507 1510 1513 1515 1518 1521 1523 1526 1528 1531 1533 1534 1536 1537 1538 1540 1541 1542 1543 1544 1544 1544 1545 1545 1546 1546
1476 1475 1474 1474 1475 1475 1475 1475 1475 1474 1477 1479 1480 1482 1484 1486 1488 1491 1493 1495 1497 1500 1503 1506 1509 1511 1514 1516 1519 1522 1525 1527 1530 1532 1533 1535 1537 1538 1539 1540 1541 1542 1543 1543 1544 1544 1544 1545 1545
1476 1475 1473 1473 1473 1473 1476 1475 1472 1474 1476 1478 1479 1481 1483 1485 1487 1488 1490 1492 1495 1498 1501 1504 1507 1510 1513 1515 1518 1521 1523 1526 1528 1531 1533 1534 1536 1537 1538 1540 1540 1541 1542 1543 1543 1544 1544 1544 1544
1473 1474 1475 1471 1472 1473 1478 1476 1471 1473 1475 1476 1478 1480 1482 1484 1485 1486 1488 1490 1493 1496 1500 1503 1505 1508 1511 1514 1516 1519 1522 1524 1527 1529 1531 1533 1535 1536 1537 1539 1540 1540 1541 1542 1542 1543 1542 1543 1543
1472 1474 1473 1471 1469 1470 1474 1473 1470 1471 1473 1475 1477 1479 1481 1482 1484 1485 1486 1488 1491 1494 1497 1500 1504 1506 1508 1511 1514 1517 1520 1523 1525 1527 1529 1531 1533 1535 1536 1537 1538 1539 1540 1541 1541 1542 1542 1542 1542
1474 1473 1472 1471 1468 1469 1470 1470 1468 1469 1471 1473 1476 1478 1479 1481 1482 1483 1485 1487 1489 1492 1495 1498 1501 1504 1506 1509 1512 1515 1518 1521 1523 1526 1528 1530 1532 1533 1534 1536 1537 1538 1539 1539 1540 1540 1540 1540 1540
1472 1472 1472 1469 1466 1469 1468 1468 1466 1467 1469 1471 1474 1476 1478 1479 1481 1482 1483 1485 1487 1490 1492 1496 1499 1501 1503 1506 1509 1512 1515 1518 1521 1524 1526 1528 1530 1531 1533 1534 1535 1536 1537 1538 1538 1538 1539 1539 1538
1473 1473 1471 1469 1466 1468 1467 1466 1465 1466 1467 1469 1472 1474 1476 1478 1479 1480 1482 1483 1485 1488 1489 1493 1496 1499 1501 1504 1507 1510 1513 1516 1519 1522 1524 1526 1528 1529 1531 1532 1533 1534 1535 1536 1536 1536 1537 1537 1537
1471 1472 1470 1470 1467 1466 1468 1468 1466 1465 1466 1468 1470 1473 1474 1476 1477 1479 1480 1482 1483 1485 1487 1491 1494 1496 1499 1501 1505 1508 1511 1514 1517 1519 1522 1524 1525 1527 1529 1530 1531 1532 1533 1534 1534 1534 1534 1535 1535
1473 1469 1468 1469 1472 1474 1470 1476 1466 1464 1465 1466 1468 1470 1472 1474 1475 1477 1478 1480 1482 1484 1486 1489 1491 1494 1496 1499 1502 1505 1507 1510 1513 1516 1519 1521 1523 1525 1526 1528 1529 1530 1531 1531 1532 1532 1532 1533 1533
1470 1468 1468 1468 1472 1475 1471 1475 1468 1461 1464 1464 1465 1468 1470 1472 1474 1475 1477 1478 1480 1482 1484 1486 1489 1491 1494 1497 1500 1502 1505 1508 1511 1514 1516 1518 1520 1522 1524 1525 1526 1527 1528 1529 1529 1530 1530 1530 1531
1470 1469 1468 1469 1473 1479 1468 1470 1469 1462 1461 1462 1464 1466 1468 1470 1472 1474 1475 1477 1478 1480 1482 1484 1486 1489 1492 1494 1497 1500 1502 1505 1508 1511 1513 1515 1517 1519 1521 1522 1524 1524 1525 1526 1527 1527 1528 1528 1528
1471 1475 1478 1477 1478 1473 1461 1464 1466 1458 1457 1459 1462 1465 1467 1469 1470 1472 1473 1475 1476 1477 1479 1482 1484 1487 1489 1492 1494 1497 1499 1502 1505 1508 1510 1512 1514 1516 1518 1519 1520 1521 1522 1523 1524 1524 1525 1525 1525
1473 1475 1481 1481 1476 1468 1461 1465 1463 1455 1456 1459 1461 1464 1466 1468 1469 1471 1472 1473 1475 1476 1478 1480 1482 1484 1487 1489 1491 1494 1496 1499 1502 1505 1507 1508 1510 1512 1514 1516 1517 1518 1519 1520 1521 1521 1522 1522 1522
1475 1476 1476 1479 1473 1473 1466 1460 1459 1455 1457 1459 1461 1463 1465 1466 1468 1469 1471 1472 1473 1475 1476 1478 1480 1482 1484 1486 1488 1491 1493 1496 1499 1501 1503 1505 1507 1509 1511 1512 1514 1515 1516 1517 1518 1518 1519 1519 1519
1476 1476 1479 1480 1478 1475 1465 1461 1464 1461 1461 1460 1462 1463 1464 1465 1466 1468 1469 1470 1472 1473 1475 1477 1478 1480 1482 1484 1486 1488 1491 1493 1496 1498 1500 1502 1504 1506 1508 1509 1511 1512 1513 1514 1515 1515 1516 1516 1516
1479 1480 1479 1479 1476 1476 1474 1472 1463 1463 1462 1463 1462 1463 1464 1464 1466 1467 1468 1469 1471 1472 1473 1475 1476 1478 1480 1481 1483 1485 1488 1490 1492 1495 1497 1499 1501 1502 1504 1506 1507 1508 1510 1511 1511 1512 1513 1513 1513
1478 1479 1481 1486 1481 1474 1475 1479 1465 1463 1462 1463 1463 1463 1464 1464 1465 1466 1467 1468 1469 1470 1471 1473 1474 1476 1477 1479 1481 1483 1485 1487 1489 1491 1493 1495 1497 1499 1500 1502 1504 1505 1506 1507 1508 1509 1509 1509 1510